• Processing (Info)

  • MPEC 2023-J100 : 2023 JU

    The following Minor Planet Electronic Circular may be linked-to from your own Web pages, but must not otherwise be redistributed electronically.

    A form allowing access to any MPEC is at the bottom of this page.


    Read MPEC 2023-J99 Read MPEC 2023-J101


    M.P.E.C. 2023-J100                                 Issued 2023 May 11, 22:09 UT
    
         The Minor Planet Electronic Circulars contain information on unusual
             minor planets, routine data on comets and natural satellites,
             and occasional editorial announcements.  They are published
        on behalf of Division F of the International Astronomical Union by the
              Minor Planet Center, Smithsonian Astrophysical Observatory,
                              Cambridge, MA 02138, U.S.A.
    			  
                 Prepared using the Tamkin Foundation Computer Network
    
                                  MPC@CFA.HARVARD.EDU
                URL https://www.minorplanetcenter.net/    ISSN 1523-6714
    
                                     2023 JU                                 
    
    
    Observations:
         K23J00U* C2023 05 10.31354913 27 08.520-07 32 43.43         20.09wXEJ100F51
         K23J00U  C2023 05 10.33702013 27 53.042-07 29 37.37         20.30wXEJ100F51
         K23J00U  C2023 05 10.34872313 28 15.217-07 28 04.26         20.50wXEJ100F51
         K23J00U  C2023 05 10.51717613 33 35.503-07 05 17.10         19.87GVEJ100F51
         K23J00U  C2023 05 10.51799213 33 37.104-07 05 10.25         20.41GVEJ100F51
         K23J00U |C2023 05 11.14629 13 54 34.92 -05 36 11.4          20.3 VuEJ100807
         K23J00U |C2023 05 11.15120 13 54 43.86 -05 35 31.3          20.3 VuEJ100807
         K23J00U |C2023 05 11.15610 13 54 52.83 -05 34 51.8          20.3 VuEJ100807
         K23J00U mC2023 05 11.20896313 56 41.802-05 33 28.84         20.04GVEJ100I52
         K23J00U mC2023 05 11.20921413 56 42.295-05 33 26.75         19.93GVEJ100I52
         K23J00U mC2023 05 11.20947013 56 42.788-05 33 24.30         20.27GVEJ100I52
         K23J00U mC2023 05 11.20972213 56 43.188-05 33 22.54         20.52GVEJ100I52
         K23J00U 1C2023 05 11.21974413 57 01.451-05 32 02.04         20.21GVEJ100G96
         K23J00U 1C2023 05 11.22917813 57 18.522-05 30 46.08         19.92GVEJ100G96
         K23J00U 1C2023 05 11.23391213 57 27.104-05 30 08.17         19.94GVEJ100G96
         K23J00U KC2023 05 11.74468 14 13 44.94 -04 17 02.7          20.3 VZEJ100M49
         K23J00U KC2023 05 11.75600 14 14 05.06 -04 15 35.4          20.0 VZEJ100M49
         K23J00U KC2023 05 11.76765 14 14 25.66 -04 14 05.7          20.4 VZEJ100M49
         K23J00U KC2023 05 11.78055 14 14 48.32 -04 12 24.7          19.7 VZEJ100M49
         K23J00U KC2023 05 11.88757714 17 56.44 -04 04 17.5          19.8 GXEJ100958
         K23J00U KC2023 05 11.89453914 18 08.43 -04 03 24.1          19.2 GXEJ100958
         K23J00U KC2023 05 11.89624414 18 11.05 -04 03 13.2          20.3 GXEJ100I93
         K23J00U KC2023 05 11.90066314 18 18.97 -04 02 34.9          19.5 GXEJ100958
         K23J00U KC2023 05 11.90144414 18 19.94 -04 02 33.2          20.3 GXEJ100I93
         K23J00U KC2023 05 11.90659814 18 28.85 -04 01 52.4          19.7 GXEJ100I93
    
    Observer details:
    807 Cerro Tololo Observatory, La Serena.  Observers T. Linder, R. Holmes, L.
        Horn.  0.61-m f/6.5 Dall-Kirkham Astrograph + CCD.
    958 Observatoire de Dax.  Observers P. Dupouy, J. B. de Vanssay.  Measurer P.
        Dupouy.  0.43-m f/2.7 Reflector + CCD.
    F51 Pan-STARRS 1, Haleakala.  Observers J. Bulger, T. Lowe, A. Schultz, I.
        Smith, K. Chambers.  Measurers K. Chambers, S. Chastel, T. de Boer, J.
        Fairlamb, H. Gao, M. Huber, C.-C. Lin, E. Magnier, Y. Ramanjooloo, R.
        Wainscoat, R. Weryk.  1.8-m Ritchey-Chretien + CCD.
    G96 Mt. Lemmon Survey.  Observer G. J. Leonard.  Measurers E. J. Christensen,
        D. Fay, J. B. Fazekas, D. C. Fuls, A. R. Gibbs, A. D. Grauer, H. Groeller,
        J. K. Hogan, R. A. Kowalski, S. M. Larson, G. J. Leonard, D. Rankin, R. L.
        Seaman, A. Serrano, F. C. Shelly, K. W. Wierzchos.  1.5-m reflector + 10K
        CCD.
    I52 Steward Observatory, Mt. Lemmon Station.  Observer R. A. Kowalski.
        Measurers E. J. Christensen, D. Fay, J. B. Fazekas, D. C. Fuls, A. R.
        Gibbs, A. D. Grauer, H. Groeller, J. K. Hogan, R. A. Kowalski, S. M.
        Larson, G. J. Leonard, D. Rankin, R. L. Seaman, A. Serrano, F. C. Shelly,
        K. W. Wierzchos.  1.0-m prime focus + CCD.
    I93 St Pardon de Conques.  Observer F. Losse.  0.40-m f/3.7 reflector + CCD.
    M49 IAS Remote Observatory, Hakos.  Observer D. Husar.  0.25-m f/4.6 reflector
        + CCD.
    
    Orbital elements:
    2023 JU                                                  Earth MOID = 0.0205 AU
    Epoch 2023 Feb. 25.0 TT = JDT 2460000.5                 Veres                   
    M 333.35920              (2000.0)            P               Q                  
    n   0.45154091     Peri.  343.14747     -0.85305916     +0.51449076             
    a   1.6826921      Node   228.14343     -0.46425509     -0.82453213             
    e   0.3939400      Incl.    6.71691     -0.23823787     -0.23546979             
    P   2.18           H   27.05          G   0.15           U   7                  
    Residuals in seconds of arc
    230510 F51  0.2+  0.4+    230511 I52  0.1-  0.3-    230511 M49  0.0   0.3+
    230510 F51  0.4+  0.4+    230511 I52  0.4+  0.1+    230511 958  1.4+  0.1-
    230510 F51  0.8+  0.3+    230511 I52  0.5-  0.1-    230511 958  0.5+  0.8-
    230510 F51  0.2-  0.1-    230511 G96  0.8+  0.1+    230511 I93  0.0   0.2+
    230510 F51  0.2+  0.1+    230511 G96  0.5+  0.4+    230511 958  0.1-  0.8+
    230511 807  0.3-  0.3-    230511 G96  0.8+  0.3+    230511 I93  1.4-  0.2-
    230511 807  0.0   0.3+    230511 M49  0.0   0.2+    230511 I93  1.2-  0.5+
    230511 807 (1.0+  0.2+)   230511 M49  0.1+  0.1-
    230511 I52  0.6-  0.4-    230511 M49  0.3+  0.7-
    
    Ephemeris:
    2023 JU                  a,e,i = 1.68, 0.39, 7                   q = 1.0198
    Date    TT    R. A. (2000) Decl.     Delta      r    Elong.  Phase     V
    2023 04 11    07 57 38.0 -16 21 11   0.1098  1.0307   102.2    71.8    24.8
    ...
    2023 04 26    08 46 35.1 -16 48 00   0.05880 1.0199   102.0    74.8    23.6
    ...
    2023 05 04    10 21 59.8 -15 57 49   0.03404 1.0243   117.7    60.6    21.9
    ...
    2023 05 10    13 16 22.0 -08 11 30   0.02572 1.0323   151.9    27.4    20.4
    2023 05 11    13 49 49.2 -05 58 13   0.02619 1.0340   157.4    22.1    20.3
    2023 05 12    14 21 11.2 -03 45 52   0.02723 1.0358   161.0    18.5    20.3
    ...
    2023 05 18    16 24 55.5 +05 03 47   0.04175 1.0487   152.8    26.1    21.4
    ...
    2023 05 26    17 25 55.7 +08 27 00   0.07019 1.0711   145.0    32.8    22.8
    ...
    2023 06 10    17 58 22.8 +08 21 04   0.1315  1.1272   146.6    29.7    24.2
    
    M. P. C. Staff               (C) Copyright 2023 MPC           M.P.E.C. 2023-J100
    


    Read MPEC 2023-J99 Read MPEC 2023-J101


    MPEC number:

    Enter an MPEC number in one of the following forms:

    • 1997-B01 (the full form)
    • J97B01 (the packed version of the full form)
    • B01 (the abbreviated form)